sat.trackr.live / text

‹ back to catalog

STARLINK-6302

NORAD 56396 · 2023-061Y

PAYLOAD ACTIVE UNKNOWN

§ Identity

Operator
Country
US
Launch date
2023-05-04
Launch site
AFETR
Launch vehicle
Mass (kg)
RCS (m²)

Purposes: comms

External: N2YO · Heavens-Above · Gunter

§ Orbital elements

Epoch: 2026-05-24T23:24:47.425824Z

Period
94.27 min
Inclination
43.0031°
Eccentricity
0.0001394
Mean motion
15.27575072 rev/d
Perigee alt
482.1 km
Apogee alt
484.0 km
Semi-major
6,861.2 km
B*
4.6122e-5
RAAN
116.0418°
Arg perigee
281.7202°
Mean anomaly
78.3493°
Rev number
16,367

§ Raw data

STARLINK-63021 56396U 23061Y   26144.97554891  .00001007  00000+0  46122-4 0  99922 56396  43.0031 116.0418 0001394 281.7202  78.3493 15.27575072163670

JSON: /api/v1/satellites/56396 · /tle

For live sub-satellite position, see the globe view (requires WebGL).

§ Visibility from observer

Set your observer location to see the next 7 days of passes ≥ 10°. The values pass through the URL so the page stays shareable.

No JS? Fill the form by hand. The geolocation button needs JavaScript.